AFL3500 ULLI-ULAA

Flight info

Callsign AFL3500
Flight time 1h 6m
Altitude 35000
Route PETAP1D PETAP T821 MAKOG MAKOG2L
Aircraft A320/M-SDE3FGHIRWY/LB1

Departure

Time 2026-05-08 20:12
Airport Pulkovo Airport (ULLI)

Arrival

Time 2026-05-08 21:18
Airport Talagi Airport (ULAA)
Time Latitude Longitude Altitude Speed Heading
2026-05-08 19:42 59.80188 30.26517 86 ft 0 kts 286°
2026-05-08 20:07 59.80189 30.26517 81 ft 1 kts 286°
2026-05-08 20:07 59.80196 30.26467 81 ft 7 kts 286°
2026-05-08 20:07 59.80229 30.26406 82 ft 6 kts 356°
2026-05-08 20:08 59.80268 30.26423 84 ft 5 kts 16°
2026-05-08 20:08 59.80297 30.26439 85 ft 4 kts 16°
2026-05-08 20:08 59.80331 30.26449 87 ft 8 kts
2026-05-08 20:08 59.80375 30.26458 86 ft 11 kts 13°
2026-05-08 20:09 59.80482 30.26572 82 ft 11 kts 18°
2026-05-08 20:09 59.80533 30.26602 86 ft 0 kts 17°
2026-05-08 20:09 59.80545 30.26610 86 ft 6 kts 17°
2026-05-08 20:10 59.80612 30.26650 80 ft 14 kts 17°
2026-05-08 20:10 59.80642 30.26768 80 ft 10 kts 106°
2026-05-08 20:10 59.80639 30.26786 80 ft 0 kts 108°
2026-05-08 20:11 59.80639 30.26787 80 ft 0 kts 108°
2026-05-08 20:11 59.80607 30.26981 80 ft 50 kts 107°
2026-05-08 20:11 59.80440 30.28111 79 ft 117 kts 107°
2026-05-08 20:11 59.80177 30.30002 122 ft 162 kts 104°
2026-05-08 20:12 59.79861 30.32204 665 ft 166 kts 106°
2026-05-08 20:12 59.79528 30.34374 1390 ft 162 kts 102°
2026-05-08 20:12 59.79204 30.36498 2019 ft 159 kts 101°
2026-05-08 20:12 59.78887 30.38584 2601 ft 157 kts 101°
2026-05-08 20:13 59.78576 30.40644 3192 ft 155 kts 101°
2026-05-08 20:13 59.78258 30.42777 3525 ft 170 kts 101°
2026-05-08 20:13 59.77908 30.45138 3811 ft 184 kts 101°
2026-05-08 20:13 59.77540 30.47595 4258 ft 187 kts 101°
2026-05-08 20:14 59.77235 30.50061 4732 ft 185 kts 89°
2026-05-08 20:14 59.77499 30.52589 4987 ft 197 kts 57°
2026-05-08 20:14 59.78514 30.54540 5260 ft 216 kts 32°
2026-05-08 20:14 59.79784 30.56310 5755 ft 230 kts 36°
2026-05-08 20:15 59.81104 30.58351 6239 ft 248 kts 38°
2026-05-08 20:15 59.82471 30.60525 6998 ft 255 kts 38°
2026-05-08 20:15 59.83866 30.62748 7797 ft 258 kts 37°
2026-05-08 20:15 59.85277 30.64985 8676 ft 260 kts 36°
2026-05-08 20:16 59.86706 30.67231 9516 ft 263 kts 36°
2026-05-08 20:16 59.88160 30.69502 10334 ft 267 kts 36°
2026-05-08 20:16 59.89651 30.71822 10827 ft 282 kts 35°
2026-05-08 20:16 59.91263 30.74320 11038 ft 305 kts 35°
2026-05-08 20:17 59.92973 30.76970 11283 ft 324 kts 35°
2026-05-08 20:17 59.94774 30.79773 11875 ft 331 kts 34°
2026-05-08 20:17 59.96603 30.82632 12557 ft 336 kts 34°
2026-05-08 20:17 59.98450 30.85527 13247 ft 340 kts 34°
2026-05-08 20:18 60.00323 30.88463 13928 ft 344 kts 33°
2026-05-08 20:18 60.02216 30.91432 14549 ft 348 kts 33°
2026-05-08 20:18 60.04137 30.94449 15124 ft 353 kts 33°
2026-05-08 20:18 60.06082 30.97505 15687 ft 357 kts 33°
2026-05-08 20:19 60.08049 31.00600 16280 ft 361 kts 32°
2026-05-08 20:19 60.10039 31.03738 16886 ft 365 kts 32°
2026-05-08 20:19 60.12043 31.06901 17456 ft 369 kts 32°
2026-05-08 20:19 60.14072 31.10107 18014 ft 373 kts 31°
2026-05-08 20:20 60.16121 31.13353 18565 ft 378 kts 31°
2026-05-08 20:20 60.18196 31.16650 19060 ft 382 kts 32°
2026-05-08 20:20 60.20260 31.19941 19548 ft 386 kts 32°
2026-05-08 20:20 60.22372 31.23314 20024 ft 390 kts 31°
2026-05-08 20:21 60.24534 31.26770 20524 ft 394 kts 31°
2026-05-08 20:21 60.26662 31.30172 21011 ft 397 kts 31°
2026-05-08 20:21 60.28838 31.33661 21473 ft 401 kts 31°
2026-05-08 20:21 60.31029 31.37181 21930 ft 405 kts 31°
2026-05-08 20:22 60.33242 31.40738 22447 ft 408 kts 31°
2026-05-08 20:22 60.35467 31.44318 22897 ft 411 kts 31°
2026-05-08 20:22 60.36954 31.46716 23186 ft 413 kts 31°
2026-05-08 20:22 60.39209 31.50361 23607 ft 417 kts 31°
2026-05-08 20:23 60.41491 31.54055 24012 ft 420 kts 31°
2026-05-08 20:23 60.43782 31.57771 24346 ft 424 kts 31°
2026-05-08 20:23 60.46090 31.61520 24675 ft 427 kts 31°
2026-05-08 20:23 60.48414 31.65307 24996 ft 430 kts 31°
2026-05-08 20:24 60.50755 31.69126 25318 ft 433 kts 31°
2026-05-08 20:24 60.53109 31.72975 25636 ft 436 kts 31°
2026-05-08 20:24 60.55480 31.76861 25993 ft 439 kts 30°
2026-05-08 20:24 60.57860 31.80768 26346 ft 440 kts 30°
2026-05-08 20:25 60.60248 31.84696 26673 ft 443 kts 30°
2026-05-08 20:25 60.62647 31.88650 26972 ft 445 kts 30°
2026-05-08 20:25 60.65061 31.92633 27262 ft 448 kts 30°
2026-05-08 20:25 60.67492 31.96646 27550 ft 450 kts 30°
2026-05-08 20:26 60.69908 32.00643 27829 ft 453 kts 31°
2026-05-08 20:26 60.72362 32.04711 28091 ft 455 kts 31°
2026-05-08 20:26 60.74826 32.08805 28367 ft 458 kts 31°
2026-05-08 20:26 60.77299 32.12930 28630 ft 460 kts 31°
2026-05-08 20:27 60.79787 32.17091 28872 ft 463 kts 31°
2026-05-08 20:27 60.82294 32.21288 29113 ft 465 kts 31°
2026-05-08 20:27 60.84801 32.25501 29349 ft 467 kts 31°
2026-05-08 20:27 60.87318 32.29734 29575 ft 469 kts 31°
2026-05-08 20:28 60.89848 32.33988 29797 ft 471 kts 31°
2026-05-08 20:28 60.92394 32.38275 30017 ft 473 kts 31°
2026-05-08 20:28 60.94938 32.42574 30329 ft 473 kts 31°
2026-05-08 20:28 60.97444 32.46822 30607 ft 473 kts 31°
2026-05-08 20:29 61.00017 32.51192 30867 ft 473 kts 31°
2026-05-08 20:29 61.02518 32.55453 31163 ft 473 kts 31°
2026-05-08 20:29 61.05049 32.59782 31513 ft 470 kts 30°
2026-05-08 20:29 61.07560 32.64086 31811 ft 469 kts 31°
2026-05-08 20:30 61.10074 32.68401 32078 ft 469 kts 30°
2026-05-08 20:30 61.12588 32.72723 32335 ft 469 kts 31°
2026-05-08 20:30 61.15095 32.77036 32594 ft 469 kts 30°
2026-05-08 20:30 61.17598 32.81380 32845 ft 470 kts 31°
2026-05-08 20:31 61.20081 32.85868 33097 ft 472 kts 32°
2026-05-08 20:31 61.22521 32.90436 33347 ft 473 kts 33°
2026-05-08 20:31 61.24911 32.95011 33599 ft 474 kts 34°
2026-05-08 20:31 61.27324 32.99682 33946 ft 474 kts 33°
2026-05-08 20:32 61.29736 33.04341 34240 ft 472 kts 33°
2026-05-08 20:32 61.32153 33.08980 34499 ft 472 kts 33°
2026-05-08 20:32 61.34571 33.13588 34711 ft 471 kts 33°
2026-05-08 20:32 61.36997 33.18194 34937 ft 471 kts 33°
2026-05-08 20:33 61.39422 33.22806 35150 ft 471 kts 33°
2026-05-08 20:33 61.41844 33.27423 35330 ft 472 kts 33°
2026-05-08 20:33 61.46701 33.36734 35388 ft 474 kts 34°
2026-05-08 20:34 61.49920 33.42943 35449 ft 474 kts 33°
2026-05-08 20:35 61.58739 33.60060 35372 ft 470 kts 33°
2026-05-08 20:35 61.63509 33.69357 35374 ft 470 kts 33°
2026-05-08 20:36 61.68297 33.78743 35367 ft 470 kts 34°
2026-05-08 20:36 61.73087 33.88168 35424 ft 470 kts 34°
2026-05-08 20:37 61.77843 33.97570 35359 ft 466 kts 34°
2026-05-08 20:37 61.82569 34.06960 35350 ft 467 kts 34°
2026-05-08 20:38 61.87303 34.16397 35340 ft 467 kts 34°
2026-05-08 20:38 61.92007 34.25792 35346 ft 467 kts 34°
2026-05-08 20:39 61.96731 34.35288 35398 ft 468 kts 35°
2026-05-08 20:39 62.01450 34.44840 35381 ft 468 kts 35°
2026-05-08 20:40 62.06168 34.54426 35367 ft 468 kts 35°
2026-05-08 20:40 62.10877 34.64042 35359 ft 468 kts 35°
2026-05-08 20:41 62.15582 34.73669 35358 ft 468 kts 35°
2026-05-08 20:41 62.20282 34.83332 35370 ft 467 kts 36°
2026-05-08 20:42 62.24921 34.92942 35371 ft 466 kts 36°
2026-05-08 20:42 62.29582 35.02632 35367 ft 465 kts 36°
2026-05-08 20:43 62.34237 35.12343 35368 ft 465 kts 36°
2026-05-08 20:43 62.38875 35.22065 35361 ft 465 kts 36°
2026-05-08 20:44 62.43480 35.31758 35371 ft 466 kts 37°
2026-05-08 20:44 62.48115 35.41537 35357 ft 465 kts 37°
2026-05-08 20:45 62.52743 35.51363 35355 ft 466 kts 37°
2026-05-08 20:45 62.57368 35.61230 35354 ft 466 kts 37°
2026-05-08 20:46 62.61987 35.71139 35357 ft 466 kts 37°
2026-05-08 20:46 62.66575 35.81022 35390 ft 467 kts 38°
2026-05-08 20:47 62.71184 35.90993 35377 ft 467 kts 38°
2026-05-08 20:47 62.75797 36.01010 35370 ft 468 kts 38°
2026-05-08 20:48 62.80405 36.11076 35368 ft 468 kts 38°
2026-05-08 20:48 62.84967 36.21100 35366 ft 468 kts 38°
2026-05-08 20:49 62.89552 36.31221 35407 ft 468 kts 39°
2026-05-08 20:49 62.94142 36.41389 35393 ft 467 kts 39°
2026-05-08 20:50 62.98718 36.51542 35388 ft 467 kts 39°
2026-05-08 20:50 63.03282 36.61754 35384 ft 467 kts 39°
2026-05-08 20:51 63.07808 36.71946 35381 ft 467 kts 39°
2026-05-08 20:51 63.12360 36.82227 35380 ft 467 kts 39°
2026-05-08 20:52 63.16900 36.92524 35384 ft 467 kts 40°
2026-05-08 20:52 63.21431 37.02856 35376 ft 467 kts 40°
2026-05-08 20:53 63.25956 37.13232 35376 ft 467 kts 40°
2026-05-08 20:53 63.30485 37.23638 35376 ft 467 kts 40°
2026-05-08 20:54 63.34977 37.33996 35403 ft 467 kts 40°
2026-05-08 20:54 63.39483 37.44454 35393 ft 467 kts 40°
2026-05-08 20:55 63.43973 37.54950 35383 ft 467 kts 40°
2026-05-08 20:55 63.48454 37.65487 35378 ft 467 kts 41°
2026-05-08 20:56 63.52903 37.75997 35341 ft 467 kts 41°
2026-05-08 20:56 63.55057 37.81478 35156 ft 472 kts 50°
2026-05-08 20:56 63.56606 37.88046 34831 ft 482 kts 66°
2026-05-08 20:56 63.57422 37.95403 34134 ft 489 kts 76°
2026-05-08 20:57 63.57965 38.02946 33335 ft 489 kts 77°
2026-05-08 20:57 63.58473 38.10505 32558 ft 489 kts 77°
2026-05-08 20:57 63.58971 38.18053 31794 ft 489 kts 77°
2026-05-08 20:57 63.59662 38.25489 31066 ft 480 kts 65°
2026-05-08 20:58 63.61114 38.32074 30337 ft 465 kts 50°
2026-05-08 20:58 63.63001 38.37938 29463 ft 460 kts 47°
2026-05-08 20:58 63.64920 38.43666 28602 ft 456 kts 47°
2026-05-08 20:58 63.66841 38.49333 27771 ft 452 kts 46°
2026-05-08 20:59 63.68968 38.54279 26797 ft 441 kts 33°
2026-05-08 20:59 63.71509 38.58211 25960 ft 435 kts 29°
2026-05-08 20:59 63.73984 38.61898 25355 ft 427 kts 30°
2026-05-08 20:59 63.76446 38.65570 24735 ft 420 kts 30°
2026-05-08 21:00 63.78866 38.69182 24124 ft 414 kts 30°
2026-05-08 21:00 63.81262 38.72752 23460 ft 408 kts 30°
2026-05-08 21:00 63.83613 38.76259 22891 ft 401 kts 30°
2026-05-08 21:00 63.85921 38.79708 22368 ft 394 kts 30°
2026-05-08 21:01 63.88188 38.83111 21854 ft 388 kts 30°
2026-05-08 21:01 63.90426 38.86479 21317 ft 383 kts 30°
2026-05-08 21:01 63.92624 38.89798 20895 ft 376 kts 30°
2026-05-08 21:01 63.94790 38.93073 20462 ft 373 kts 30°
2026-05-08 21:02 63.96934 38.96312 20332 ft 375 kts 30°
2026-05-08 21:02 63.99115 38.99617 20343 ft 377 kts 30°
2026-05-08 21:02 64.01302 39.02945 20334 ft 378 kts 30°
2026-05-08 21:02 64.03490 39.06285 20339 ft 378 kts 30°
2026-05-08 21:03 64.05678 39.09628 20169 ft 377 kts 30°
2026-05-08 21:03 64.07893 39.13008 19131 ft 387 kts 30°
2026-05-08 21:03 64.10143 39.16447 18239 ft 386 kts 30°
2026-05-08 21:03 64.12350 39.19843 17100 ft 379 kts 30°
2026-05-08 21:04 64.14489 39.23140 16019 ft 372 kts 30°
2026-05-08 21:04 64.16633 39.26445 15304 ft 370 kts 30°
2026-05-08 21:04 64.18756 39.29721 14812 ft 365 kts 30°
2026-05-08 21:04 64.20851 39.32950 14305 ft 361 kts 30°
2026-05-08 21:05 64.22925 39.36158 13788 ft 356 kts 30°
2026-05-08 21:05 64.24969 39.39337 13249 ft 352 kts 30°
2026-05-08 21:05 64.26983 39.42473 12748 ft 346 kts 30°
2026-05-08 21:05 64.28966 39.45564 12239 ft 342 kts 31°
2026-05-08 21:06 64.30919 39.48618 11743 ft 337 kts 31°
2026-05-08 21:06 64.32850 39.51637 11234 ft 333 kts 31°
2026-05-08 21:06 64.34756 39.54620 10757 ft 328 kts 31°
2026-05-08 21:06 64.36581 39.57489 10618 ft 314 kts 31°
2026-05-08 21:07 64.38345 39.60271 10487 ft 301 kts 31°
2026-05-08 21:07 64.40040 39.62941 10358 ft 289 kts 30°
2026-05-08 21:07 64.41670 39.65505 10217 ft 278 kts 30°
2026-05-08 21:07 64.43251 39.67995 9951 ft 272 kts 30°
2026-05-08 21:08 64.44814 39.70453 9804 ft 270 kts 30°
2026-05-08 21:08 64.46367 39.72900 9638 ft 270 kts 30°
2026-05-08 21:08 64.47908 39.75336 9150 ft 272 kts 31°
2026-05-08 21:08 64.48963 39.77010 8877 ft 271 kts 31°
2026-05-08 21:09 64.52556 39.82733 7871 ft 265 kts 32°
2026-05-08 21:09 64.54070 39.85151 7202 ft 262 kts 32°
2026-05-08 21:09 64.55567 39.87543 6676 ft 261 kts 32°
2026-05-08 21:10 64.57072 39.89954 6165 ft 263 kts 32°
2026-05-08 21:10 64.58068 39.91549 5888 ft 262 kts 32°
2026-05-08 21:10 64.59567 39.93948 5431 ft 261 kts 32°
2026-05-08 21:10 64.61534 39.97159 4832 ft 260 kts 38°
2026-05-08 21:11 64.62661 40.00365 4595 ft 253 kts 61°
2026-05-08 21:11 64.63066 40.02943 4505 ft 247 kts 78°
2026-05-08 21:11 64.63070 40.06810 4398 ft 237 kts 94°
2026-05-08 21:11 64.62876 40.10543 4288 ft 226 kts 94°
2026-05-08 21:12 64.62701 40.14108 4177 ft 216 kts 94°
2026-05-08 21:12 64.62546 40.17512 4102 ft 204 kts 93°
2026-05-08 21:12 64.62405 40.20660 4008 ft 190 kts 93°
2026-05-08 21:12 64.62272 40.23609 3909 ft 171 kts 92°
2026-05-08 21:13 64.62155 40.26184 3790 ft 151 kts 92°
2026-05-08 21:13 64.62048 40.28548 3612 ft 147 kts 91°
2026-05-08 21:13 64.61942 40.30909 3420 ft 146 kts 91°
2026-05-08 21:13 64.61835 40.33255 3222 ft 145 kts 91°
2026-05-08 21:14 64.61729 40.35583 3021 ft 144 kts 91°
2026-05-08 21:14 64.61622 40.37901 2824 ft 143 kts 91°
2026-05-08 21:14 64.61516 40.40201 2619 ft 142 kts 91°
2026-05-08 21:14 64.61410 40.42481 2420 ft 141 kts 91°
2026-05-08 21:15 64.61305 40.44739 2223 ft 139 kts 91°
2026-05-08 21:15 64.61201 40.46960 2029 ft 137 kts 91°
2026-05-08 21:15 64.61099 40.49133 1835 ft 136 kts 91°
2026-05-08 21:15 64.60997 40.51310 1642 ft 135 kts 91°
2026-05-08 21:16 64.60895 40.53482 1444 ft 134 kts 91°
2026-05-08 21:16 64.60793 40.55641 1259 ft 133 kts 91°
2026-05-08 21:16 64.60692 40.57761 1069 ft 133 kts 91°
2026-05-08 21:16 64.60590 40.59904 874 ft 133 kts 92°
2026-05-08 21:17 64.60488 40.62062 696 ft 134 kts 94°
2026-05-08 21:17 64.60384 40.64223 526 ft 134 kts 93°
2026-05-08 21:17 64.60298 40.66391 310 ft 135 kts 94°
2026-05-08 21:17 64.60178 40.68559 124 ft 135 kts 96°
2026-05-08 21:18 64.60078 40.70641 36 ft 105 kts 96°
2026-05-08 21:18 64.60030 40.71325 38 ft 5 kts 169°
2026-05-08 21:18 64.59991 40.71328 39 ft 8 kts 177°
2026-05-08 21:18 64.59951 40.71322 40 ft 4 kts 186°
2026-05-08 21:19 64.59927 40.71316 40 ft 3 kts 186°
2026-05-08 21:19 64.59909 40.71311 40 ft 2 kts 186°
2026-05-08 21:19 64.59897 40.71308 40 ft 1 kts 186°
2026-05-08 21:19 64.59881 40.71304 40 ft 5 kts 186°
2026-05-08 21:20 64.59828 40.71290 40 ft 9 kts 187°
2026-05-08 21:20 64.59772 40.71273 40 ft 8 kts 187°
2026-05-08 21:20 64.59731 40.71309 40 ft 6 kts 126°
2026-05-08 21:20 64.59717 40.71386 40 ft 4 kts 131°
2026-05-08 21:21 64.59694 40.71396 40 ft 3 kts 185°
2026-05-08 21:21 64.59675 40.71391 40 ft 2 kts 186°
2026-05-08 21:21 64.59666 40.71389 40 ft 0 kts 186°